Torna al catalogo

STARLINK-5184

AttivoComunicazioniVLEO
NORAD 54087·PAYLOAD·🇺🇸 United States

Lanciato Oct 20, 2022 da Cape Canaveral Space Force Station

Loading…

Prossimi Passaggi (prossime 24 ore)

TLE

AggiornatoSource: CelesTrak SupGP

Epoca: Sep 15, 2026, 01:58 UTC

1 54087C 22136AN  26258.08243056  .00258890  00000+0  12157-1 0  2585
2 54087  53.1608 202.5995 0001322  86.4234 347.3207 15.18983434    19

Traccia STARLINK-5184 in tempo reale con AllMySat

Download on the App Store